Other Public Products
Issued by NWS Charleston, SC

Current Version | Previous Version | Graphics & Text | Print | Product List | Glossary On
Versions: 1 2 3 4 5 6 7 8 9 10 11 12 13 14 15 16 17 18 19 20 21 22 23 24 25 26 27 28 29 30 31 32 33 34 35 36 37 38 39 40 41 42 43 44 45 46 47 48 49 50
000 FPUS82 KCHS 161012 OPUCHS TEST...KCHS/KSAV Gateway Observations...TEST National Weather Service Charleston SC 500 AM EST TUE JAN 16 2018 NOTE: "fair" indicates few or no clouds below 12,000 feet with no significant weather and/or obstructions to visibility. SCZ050-WAZ558-NCZ071-TXZ119-213-PAZ071-DCZ001-FLZ074-172-MI076- NYZ176-178-MAZ016-IL014-TNZ027-NJZ106-GAZ044-MD014-161100- ...Gateway Observations for Charleston International... CITY SKY/WX TMP DP RH WIND PRES REMARKS Chas Airport FAIR 27 19 72 N5 30.45R WCI 22 Seattle LGT RAIN 49 47 93 SE13 30.04R Charlotte FAIR 23 17 78 CALM 30.42F Dallas DFW FLURRIES 24 6 46 N20G28 30.70R WCI 10 Dallas Love CLOUDY 24 5 44 N15 30.72R WCI 11 Philladelphia CLOUDY 30 23 75 E7 30.47F WCI 23 Wash National CLOUDY 31 28 89 S3 30.46S Baltimore CLOUDY 29 25 85 CALM 30.46R Miami FAIR 62 56 80 NW5 30.23S Detroit FLURRIES 16 11 80 SW13 30.34R WCI 2 Newark CLOUDY 26 17 68 N3 30.51S Laguardia CLOUDY 25 19 78 E7 30.50F WCI 17 J F K CLOUDY 25 22 88 NE9 30.51F WCI 15 Boston Logan CLOUDY 21 13 71 N6 30.52F WCI 13 Ft. Lauderdale FAIR 65 55 70 NE10 30.22S Chicago O`Hare CLOUDY 10 4 76 W8 30.36R WCI -2 Chicago Midway LGT SNOW 7 2 80 W10 30.37S FOG WCI -8 Houston Bush RAIN 39 38 96 N18G26 30.46R FOG WCI 30 Houston Hobby LGT RAIN 44 43 96 N18G29 30.42R Nashville FLURRIES 20 13 74 N13 30.51R WCI 7 Atlanta FAIR 32 25 75 SE3 30.39S $$ GAZ044-118-TXZ119-213-NCZ071-DCZ001-MDZ014-506-PAZ021-071-NJZ106- NYZ176-178-MAZ106-OHZ011-021-055-MIZ076-KYZ091-ILZ014-INZ047- MNZ060-ONZ431-161100- ...Gateway Observations for Savannah International... CITY SKY/WX TMP DP RH WIND PRES REMARKS Savannah Arpt FAIR 30 27 88 N3 30.45S Atlanta FAIR 32 25 75 SE3 30.39S Charlotte FAIR 23 17 78 CALM 30.42F Dallas DFW FLURRIES 24 6 46 N20G28 30.70R WCI 10 Houston Bush RAIN 39 38 96 N18G26 30.46R FOG WCI 30 Wash National CLOUDY 31 28 89 S3 30.46S Wash Dulles CLOUDY 26 24 92 CALM 30.44S Baltimore CLOUDY 29 25 85 CALM 30.46R Philadelphia CLOUDY 30 23 75 E7 30.47F WCI 23 Newark CLOUDY 26 17 68 N3 30.51S Laguardia CLOUDY 25 19 78 E7 30.50F WCI 17 J F K CLOUDY 25 22 88 NE9 30.51F WCI 15 Boston CLOUDY 21 13 71 N6 30.52F WCI 13 Pittsburg LGT SNOW 26 23 88 SW6 30.32R FOG WCI 19 Akron CLOUDY 23 19 85 SW5 30.31S WCI 17 Cleveland FLURRIES 21 16 81 W14 30.37R WCI 8 Cincinnati FLURRIES 11 6 81 NW12 30.44R WCI -3 Columbus CLOUDY 12 7 79 NW8 30.41S WCI 1 Detroit FLURRIES 16 11 80 SW13 30.34R WCI 2 Chicago O`Hare CLOUDY 10 4 76 W8 30.36R WCI -2 Minneapolis FAIR -1 -4 87 NW10 30.64R WCI -17 Indianapolis FAIR -2 -6 83 W12 30.47S WCI -20 Toronto Canada FLURRIES 16 12 86 N6 30.30S WCI 7 $$

USA.gov is the U.S. government's official web portal to all federal, state and local government web resources and services.